• Join FlightAware (Why Join?)
  • Login
  • US Flag GB Flag 
08:13 EDT


 

Airport Tracker/Info


-or-


 

Live Flight TrackerFlight Track Log ✈ N860BA ✈ 03-Nov-2013 ✈ KHOU - KFLL

Flight Track Log - Related Links

Times and Time Zones

All times are in EST time to prevent confusion due to time zone crossing. See the N860BA flight status page for this flight to view local times or setup timezone preferences in your user account.

Time Position Orientation Groundspeed Altitude Reporting Facility
EST Latitude Longitude Course Direction KTS MPH feet Rate Location/Type
10:38 29.6358 -95.2697 149° Southeast 148 170 600  Level Houston Center
10:39 29.5986 -95.2444 149° Southeast 247 284 2,400 2,640 Climbing Houston Center
10:39 29.5883 -95.2347 141° Southeast 247 284 3,300 4,140 Climbing Houston Center
10:40 29.5717 -95.1669 106° East 264 304 6,700 3,540 Climbing Houston Center
10:40 29.5753 -95.1619 50° Northeast 272 313 7,000 3,180 Climbing Houston Center
10:41 29.6072 -95.0761 67° East 287 330 10,200 2,700 Climbing Houston Center
10:42 29.6294 -94.9981 72° East 297 342 12,400 2,400 Climbing Houston Center
10:43 29.6564 -94.8986 73° East 320 368 15,000 2,400 Climbing Houston Center
10:44 29.6614 -94.7889 87° East 353 406 17,400 2,220 Climbing Houston Center
10:45 29.6622 -94.6544 90° East 354 407 19,700 1,980 Climbing Houston Center
10:46 29.6633 -94.5375 89° East 362 417 21,500 1,620 Climbing Houston Center
10:47 29.6642 -94.4114 90° East 389 448 23,100 1,500 Climbing Houston Center
10:49 29.6656 -94.2811 89° East 406 467 24,600 1,500 Climbing Houston Center
10:50 29.6661 -94.1311 90° East 421 484 26,200 1,320 Climbing Houston Center
10:51 29.6656 -93.9939 90° East 430 495 27,400 1,020 Climbing Houston Center
10:52 29.6675 -93.8497 89° East 448 516 28,400 960 Climbing Houston Center
10:53 29.6672 -93.7031 90° East 459 528 29,400 960 Climbing Houston Center
10:54 29.6678 -93.5531 90° East 469 540 30,400 960 Climbing Houston Center
10:55 29.6672 -93.3717 90° East 477 549 31,500 900 Climbing Houston Center
10:56 29.6672 -93.2178 90° East 483 556 32,300 720 Climbing Houston Center
10:57 29.6667 -93.0625 90° East 488 562 33,000 720 Climbing Houston Center
10:58 29.6667 -92.9058 90° East 493 567 33,800 780 Climbing Houston Center
10:59 29.6661 -92.7508 90° East 490 564 34,600 840 Climbing Houston Center
11:00 29.6650 -92.5653 90° East 486 559 35,600 720 Climbing Houston Center
11:01 29.6639 -92.4100 90° East 488 562 36,200 480 Climbing Houston Center
11:02 29.6383 -92.2544 101° East 502 578 36,700 360 Climbing Houston Center
11:03 29.6058 -92.0969 103° East 505 581 37,000 120 Climbing Houston Center
11:04 29.5733 -91.9375 103° East 513 590 37,000  Level Houston Center
11:05 29.5389 -91.7758 104° East 521 600 37,000  Level Houston Center
11:06 29.5039 -91.6094 104° East 526 605 37,000  Level Houston Center
11:07 29.4628 -91.4139 104° East 527 606 37,000  Level Houston Center
11:08 29.4281 -91.2522 104° East 525 604 37,000  Level Houston Center
11:09 29.3928 -91.0903 104° East 526 605 37,000  Level Houston Center
11:10 29.3575 -90.9289 104° East 525 604 37,000  Level Houston Center
11:11 29.3225 -90.7683 104° East 522 601 37,000  Level Houston Center
11:12 29.2811 -90.5764 104° East 521 600 37,000  Level Houston Center
11:13 29.2453 -90.4172 104° East 520 598 37,000  Level Houston Center
11:14 29.2094 -90.2583 104° East 519 597 37,000  Level Houston Center
11:15 29.1744 -90.0978 104° East 521 600 37,000  Level Houston Center
11:16 29.1411 -89.9403 104° East 516 594 37,000  Level Houston Center
11:17 29.1089 -89.7803 103° East 518 596 37,000  Level Houston Center
11:18 29.0694 -89.5894 103° East 517 595 37,000  Level Houston Center
11:20 29.0369 -89.4289 103° East 520 598 37,000  Level Houston Center
11:21 29.0042 -89.2711 103° East 517 595 37,000  Level Houston Center
11:22 28.9711 -89.1125 103° East 515 593 37,000  Level Houston Center
11:23 28.9381 -88.9544 103° East 516 594 37,000  Level Houston Center
11:24 28.8978 -88.7658 104° East 512 589 37,000  Level Houston Center
11:25 28.8583 -88.6111 106° East 509 586 37,000  Level Houston Center
11:26 28.8164 -88.4558 107° East 513 590 37,000  Level Houston Center
11:27 28.7728 -88.3019 108° East 513 590 37,000  Level Houston Center
11:28 28.7306 -88.1492 107° East 510 587 37,000  Level Houston Center
11:29 28.6844 -87.9856 108° East 510 587 37,000  Level Houston Center
11:30 28.6408 -87.8339 108° East 506 582 37,000  Level Houston Center
11:31 28.5892 -87.6514 108° East 506 582 37,000  Level Houston Center
11:32 28.5464 -87.5000 108° East 505 581 37,000  Level Houston Center
11:33 28.5031 -87.3503 108° East 502 578 37,000  Level Houston Center
11:34 28.4594 -87.2011 108° East 500 575 37,000  Level Houston Center
11:35 28.4169 -87.0511 108° East 500 575 37,000  Level Houston Center
11:36 28.3744 -86.9033 108° East 497 572 37,000  Level Houston Center
11:37 28.3222 -86.7256 108° East 495 570 37,000  Level Houston Center
11:38 28.2744 -86.5806 110° East 493 567 37,000  Level Houston Center
11:39 28.2147 -86.4067 111° Southeast 489 563 37,000  Level Jacksonville Center
11:40 28.1622 -86.2636 113° Southeast 496 571 37,000  Level Jacksonville Center
11:41 28.1117 -86.1183 112° Southeast 501 577 37,000  Level Jacksonville Center
11:42 28.0569 -85.9686 112° Southeast 496 571 37,000  Level Jacksonville Center
11:43 28.0058 -85.8283 112° Southeast 501 577 37,000  Level Jacksonville Center
11:44 27.9550 -85.6836 112° Southeast 493 567 37,000  Level Jacksonville Center
11:47 27.8603 -85.4331 113° Southeast  Level FlightAware Approximate
11:52 27.5828 -84.6486 113° Southeast 492 566 37,000  Level Miami Center
11:53 27.5217 -84.5042 115° Southeast 492 566 37,000  Level Miami Center
11:54 27.5298 -84.5399 112° Southeast  Level FlightAware Approximate
11:54 27.4750 -84.3608 110° East 487 560 37,000  Level Miami Center
11:55 27.4831 -84.4123 112° Southeast  Level FlightAware Approximate
11:55 27.4175 -84.2194 115° Southeast 487 560 37,000  Level Miami Center
11:56 27.4362 -84.2849 112° Southeast  Level FlightAware Approximate
11:56 27.3683 -84.0783 111° Southeast 487 560 37,000  Level Miami Center
11:57 27.3892 -84.1575 113° Southeast  Level FlightAware Approximate
11:57 27.3108 -83.9347 114° Southeast 487 560 37,000  Level Miami Center
11:58 27.3420 -84.0303 113° Southeast  Level FlightAware Approximate
11:58 27.2614 -83.7939 112° Southeast 487 560 37,000  Level Miami Center
11:59 27.2948 -83.9031 113° Southeast  Level FlightAware Approximate
11:59 27.2075 -83.6556 114° Southeast 487 560 37,000  Level Miami Center
12:00 27.2474 -83.7761 113° Southeast  Level FlightAware Approximate
12:00 27.1556 -83.5150 113° Southeast 487 560 37,000  Level Miami Center
12:01 27.2000 -83.6492 113° Southeast  Level FlightAware Approximate
12:01 27.0994 -83.3764 114° Southeast 487 560 37,000  Level Miami Center
12:02 27.1524 -83.5224 113° Southeast  Level FlightAware Approximate
12:02 27.0492 -83.2408 113° Southeast 482 555 37,000  Level Miami Center
12:03 26.9967 -83.1053 113° Southeast 482 555 37,000 -300 Level Miami Center
12:04 26.9439 -82.9697 114° Southeast 476 548 36,500 -840 Descending Miami Center
12:05 26.8894 -82.8272 113° Southeast 481 554 35,400 -1,200 Descending Miami Center
12:06 26.8347 -82.6847 113° Southeast 487 560 34,200 -1,440 Descending Miami Center
12:07 26.7817 -82.5475 113° Southeast 487 560 32,600 -2,040 Descending Miami Center
12:08 26.7267 -82.4031 113° Southeast 487 560 30,200 -2,700 Descending Miami Center
12:09 26.6636 -82.2467 114° Southeast 494 568 27,200 -2,760 Descending Miami Center
12:10 26.6083 -82.1047 114° Southeast 494 568 24,700 -2,520 Descending Miami Center
12:11 26.5528 -81.9631 114° Southeast 489 563 22,200 -2,580 Descending Miami Center
12:12 26.4972 -81.8261 114° Southeast 484 557 19,600 -2,400 Descending Miami Center
12:13 26.4433 -81.6894 114° Southeast 484 557 17,500 -2,100 Descending Miami Center
12:14 26.3950 -81.5692 114° Southeast 454 522 15,500 -2,100 Descending Miami Center
12:15 26.3525 -81.4631 114° Southeast 399 459 13,400 -2,100 Descending Miami Center
12:16 26.3117 -81.3597 114° Southeast 366 421 11,400 -1,980 Descending Miami Center
12:17 26.2686 -81.2722 119° Southeast 337 388 9,500 -1,500 Descending Miami Center
12:18 26.2289 -81.2014 122° Southeast 310 357 8,400 -840 Descending Miami Center
12:18 26.1931 -81.1422 124° Southeast 256 295 8,100 -420 Descending Miami Center
12:19 26.1933 -81.1331 88° East 271 312 8,000 -120 Descending Miami Center
12:20 26.1597 -81.0647 119° Southeast 253 291 8,000 60 Level Miami Center
12:20 26.1436 -81.0433 130° Southeast 254 292 8,100  Climbing Miami Center
12:21 26.1181 -80.9892 118° Southeast 253 291 8,000  Descending Miami Center
12:21 26.1058 -80.9772 139° Southeast 254 292 8,100 -300 Climbing Miami Center
12:22 26.0911 -80.9097 104° East 256 295 7,700 -900 Descending Miami Center
12:23 26.1119 -80.8386 72° East 243 280 6,600 -1,320 Descending Miami Center
12:23 26.1142 -80.8317 70° East 267 307 6,400 -2,220 Descending Miami Center
12:24 26.1283 -80.7675 76° East 236 272 4,400 -2,220 Descending Miami Center
12:24 26.1286 -80.7558 88° East 221 254 4,200 -420 Descending Miami Center
12:25 26.1408 -80.6939 78° East 201 231 3,900 -660 Descending Miami Center
12:26 26.1483 -80.6431 81° East 211 243 3,100 -780 Descending Miami Center
12:26 26.1467 -80.6247 96° East 205 236 3,100 -120 Level Miami Center
12:27 26.1564 -80.5786 77° East 206 237 3,000  Descending Miami Center
12:27 26.1589 -80.5578 82° East 213 245 3,100  Climbing Miami Center
12:28 26.1642 -80.5142 82° East 206 237 3,000  Descending Miami Center
12:28 26.1647 -80.4933 88° East 201 231 3,100 60 Climbing Miami Center
12:29 26.1686 -80.4217 87° East 211 243 3,100 -540 Level Miami Center
12:30 26.1783 -80.3594 80° East 199 229 2,000 -600 Descending Miami Center
12:31 26.1839 -80.3017 84° East 191 220 2,000 -360 Level Miami Center
12:32 26.1869 -80.2600 85° East 137 158 1,400 -720 Descending Miami Center
12:33 26.1919 -80.2208 82° East 113 130 700 -720 Descending Miami Center
12:35 26.1833 -80.1667 90° East  Level FlightAware Approximate
12:42 26.0726 -80.1527 90° East  Level Estimated
12:43 26.0726 -80.1527 90° East  Level Estimated
12:44 26.0726 -80.1527 90° East  Level Estimated
12:45 26.0726 -80.1527 90° East  Level Estimated
12:46 26.0726 -80.1527 90° East  Level Estimated
12:47 26.0726 -80.1527 90° East  Level Estimated